NIMBUS 2 DEB, 28618

Orbit data source: Space-Track

NIMBUS 2 DEB, 28618 is space debris in SSO originally from a launch on Sun, 15 May 1966 UTC launched from the Air Force Western Test Range (AFWTR). Debris objects in space refer to the collection of defunct objects orbiting the Earth. Examples of debris include non-operational satellites, rocket bodies, and fragments generated from explosions, collisions, or faulty payload assembly.

Loading next visibility...
Identifier
28618, 1966-040AH
Orbit
SSO
Country
Flag of USUS
Related business
Manufacturer
Unknown
Mission
Spacecraft
Bus & Motor
Unknown
Mass
Unknown
Launch date (UTC)
1966-05-15 (59 years ago)
Launch vehicle
Unknown
Launch site
Air Force Western Test Range (AFWTR)
Object type
Payload
Rocket body
Debris
Shape & HBR
Unknown shape, 0.1 m
Radar Cross Section
Small (<0.1 m²)

Expand to show TLE details & history
Last TLE update: 2 days ago

TLE from 2 days ago
0 NIMBUS 2 DEB
1 28618U 66040AH  25309.70724260  .00007628  00000-0  56483-2 0  9999
2 28618 100.2623 106.9963 0035268 335.2491  42.3213 13.95233197618290
Epoch: 2025-11-05T16:58Z
TLE epoch observation values (Epoch: 2025-11-05T16:58:25.760Z)
Latitude
17.53974°
Longitude
163.94972°
Altitude
893.623 km
Speed
7.416 km/s
True Right ascension
06h 54m 55s
True Declination
17° 26' 35"
Sunlit
Object was in full shadow at epoch
Visualization orbit readout
Latitude
Unknown
Longitude
Unknown
Altitude
Unknown
Speed
Unknown
Apparent Right ascension
Unknown
Apparent Declination
Unknown
Sunlit
N/A
Visualization observer readout
Local Sidereal Time
08:45:49
Azimuth
Unknown
Elevation
Unknown
Doppler factor
Unknown
Orbital elements
Apogee altitude
933.316 km
Perigee altitude
881.925 km
Semi-major axis
7,285.757 km
Eccentricity
0.00353
Inclination
100.2623°
RAAN
106.9963°
Arg. of periapsis
335.2491°
True anomaly
42.59429°
Mean anomaly
42.3213°
Eccentric anomaly
42.45771°
Mean motion
3.49005 °/min
Orbital period
103.15 mins
BSTAR
0.0056483
Loading maneuver chart data...
Computing Atmospheric mass density...
Loading historical data...
Loading historical data...
Loading historical data...
Loading historical data...
Loading historical data...
Loading historical data...
Loading historical data...

Documentation

Showing up to 5 results
|